FENGYUN 1C DEB

Satellite information

Favourite Embed

Satellite Type and Status

DEBRISIN ORBIT

Key statistics

Satellite FENGYUN 1C DEB at a glance.

Uptime

9715

Days in orbit

Revolutions

≈ 13.8

Per day

Orbit

SSO

Sun Synchronous Orbit

Inclination

98.7

Latest

Satellite identification and parameters

Extended collection of information and parameters for FENGYUN 1C DEB.

Object identification

Identified? True

Debris? True

Object name: FENGYUN 1C DEB

International designator: 1999-025CUN

Object number (NORAD): 32192

Object ID (CCSDS): 32192

Country: PEOPLES REPUBLIC OF CHINA (PRC)

Current information (Y/N): Y

RCS size: SMALL

Orbital parameters

Period: 104.158 minutes

Inclination: 98.6529 deg

SMA: 7333.136 km

Apoapsis: 1088.167 km

Periapsis: 821.835 km

RAAN: 215.2024 deg

Eccentricy: 0.01815944

Argument of periapsis: 169.561 deg

Mean anomaly: 190.9397 deg

Mean motion: 13.82509568 rev/day

Mean motion (dot): 0.00000437 rev/day2

B* drag term: 0.00038665557 1/REarth

Two-line elements (TLE)

Creation date: Dec. 10, 2025, 10:40 a.m.

Reference frame: TEME

Reference center: EARTH

Epoch: Dec. 10, 2025, 2:45 a.m. UTC

TLE line 0: 0 FENGYUN 1C DEB

TLE line 1: 1 32192U 99025CUN 25344.11483218 .00000437 00000-0 38666-3 0 9994

TLE line 2: 2 32192 98.6529 215.2024 0181594 169.5610 190.9397 13.82509568926765

Live tracking on map

Real-time ground track for satellite FENGYUN 1C DEB.

In-orbit conjunctions

A list of the most updated potential collisions computed for object FENGYUN 1C DEB.

Target Orbit TCA Probability of collision Miss distance Type
COSMOS 1656 LEO 2025-02-09 02:22:18 0.000201969 553.0 (m) PAYLOAD
COSMOS 962 LEO 2025-01-04 18:38:40 0.0006992748 402.0 (m) PAYLOAD
COSMOS 860 LEO 2024-10-22 03:29:11 0.0005929499 342.0 (m) PAYLOAD

Associated space launch

Chinese polar orbiting meteorological satellite

FENGYUN 1C DEB was lifted into orbit during the mission ‘Long March 4B | Feng Yun 1C’, on board a Long March 4B space rocket.

The launch took place on May 10, 1999, 1:33 a.m. from Launch Complex 7.

For more information about the launch, click the button.

Launch to space Long March 4B | Feng Yun 1C
Long March 4B | Feng Yun 1C

Agency: N/A

Status: Launch Successful

Launch date: May 10, 1999, 1:33 a.m. UTC

Rocket: Long March 4B

Launch pad: Launch Complex 7

Location: Taiyuan Satellite Launch Center, People's Republic of China

...

Latest news about this satellite

There are no fresh news available about this satellite. Check back as we update our databases every day.


Newsletter sign-up

Weekly statistics, charts and insights to help you stay on top of the space industry.